User: anonymous   Login
Location: Waldport
(44.4270°N, 124.0680°W)
Time: 04:51:12
(UTC-08:00)
Language:

Cosmos 1570 Rocket - Orbit

View from above orbital plane
View from above orbital plane
View from above satellite
View from above satellite

Ground track
Ground track

The orbit data is extracted from the following two-line orbital elements,

1 15032U 84056B   16040.88169017  .00000170  00000-0  69197-4 0  9999
2 15032  74.0696 257.9414 0017635 188.1185 171.9684 14.34638230656176
Epoch (UTC): 09 February 2016 21:09:38
Eccentricity: 0.0017635
inclination: 74.0696°
perigee height: 763 km
apogee height: 789 km
right ascension of ascending node: 257.9414°
argument of perigee: 188.1185°
revolutions per day: 14.34638230
mean anomaly at epoch: 171.9684°
orbit number at epoch: 65617

The dashed part of the orbit path shows where the satellite is in the earth's shadow,  

DLR